User: anonymous   Login
Location: Azul
(36.7830°S, 59.8500°W)
Time: 08:29:03
(UTC-03:00)
Language:

AO-85 - Orbit

View from above orbital plane
View from above orbital plane
View from above satellite
View from above satellite

Ground track
Ground track

The orbit data is extracted from the following two-line orbital elements,

1 40967U 15058D   24260.91882131  .00006773  00000-0  60999-3 0  9991
2 40967  64.7759  93.9901 0190670 276.2007  81.7411 14.83474293 18594
Epoch (UTC): 16 September 2024 22:03:06
Eccentricity: 0.0190670
inclination: 64.7759°
perigee height: 485 km
apogee height: 752 km
right ascension of ascending node: 93.9901°
argument of perigee: 276.2007°
revolutions per day: 14.83474293
mean anomaly at epoch: 81.7411°
orbit number at epoch: 1859

The dashed part of the orbit path shows where the satellite is in the earth's shadow,  

DLR